Year,Month,Day,Hour,Minute,Value (Times are PST for temperature in C)
2012,05,04,00,00,8.70
2012,05,04,00,01,8.70
2012,05,04,00,02,8.70
2012,05,04,00,03,8.70
2012,05,04,00,04,8.70
2012,05,04,00,05,8.70
2012,05,04,00,06,8.60
2012,05,04,00,07,8.60
2012,05,04,00,08,8.60
2012,05,04,00,09,8.60
2012,05,04,00,10,8.60
2012,05,04,00,11,8.70
2012,05,04,00,12,8.70
2012,05,04,00,13,8.70
2012,05,04,00,14,8.70
2012,05,04,00,15,8.70
2012,05,04,00,16,8.70
2012,05,04,00,17,8.70
2012,05,04,00,18,8.70
2012,05,04,00,19,8.70
2012,05,04,00,20,8.70
2012,05,04,00,21,8.70
2012,05,04,00,22,8.70
2012,05,04,00,23,8.70
2012,05,04,00,24,8.70
2012,05,04,00,25,8.70
2012,05,04,00,26,8.70
2012,05,04,00,27,8.70
2012,05,04,00,28,8.60
2012,05,04,00,29,8.60
2012,05,04,00,30,8.60
2012,05,04,00,31,8.60
2012,05,04,00,32,8.60
2012,05,04,00,33,8.60
2012,05,04,00,34,8.60
2012,05,04,00,35,8.60
2012,05,04,00,36,8.60
2012,05,04,00,37,8.60
2012,05,04,00,38,8.60
2012,05,04,00,39,8.60
2012,05,04,00,40,8.60
2012,05,04,00,41,8.60
2012,05,04,00,42,8.50
2012,05,04,00,43,8.50
2012,05,04,00,44,8.50
2012,05,04,00,45,8.50
2012,05,04,00,46,8.50
2012,05,04,00,47,8.50
2012,05,04,00,48,8.40
2012,05,04,00,49,8.40
2012,05,04,00,50,8.40
2012,05,04,00,51,8.40
2012,05,04,00,52,8.40
2012,05,04,00,53,8.40
2012,05,04,00,54,8.40
2012,05,04,00,55,8.40
2012,05,04,00,56,8.30
2012,05,04,00,57,8.30
2012,05,04,00,58,8.30
2012,05,04,00,59,8.30
2012,05,04,01,00,8.30
2012,05,04,01,01,8.30
2012,05,04,01,02,8.30
2012,05,04,01,03,8.30
2012,05,04,01,04,8.20
2012,05,04,01,05,8.20
2012,05,04,01,06,8.20
2012,05,04,01,07,8.20
2012,05,04,01,08,8.20
2012,05,04,01,09,8.20
2012,05,04,01,10,8.20
2012,05,04,01,11,8.20
2012,05,04,01,12,8.20
2012,05,04,01,13,8.20
2012,05,04,01,14,8.20
2012,05,04,01,15,8.20
2012,05,04,01,16,8.20
2012,05,04,01,17,8.20
2012,05,04,01,18,8.20
2012,05,04,01,19,8.20
2012,05,04,01,20,8.20
2012,05,04,01,21,8.20
2012,05,04,01,22,8.20
2012,05,04,01,23,8.20
2012,05,04,01,24,8.20
2012,05,04,01,25,8.20
2012,05,04,01,26,8.20
2012,05,04,01,27,8.20
2012,05,04,01,28,8.10
2012,05,04,01,29,8.10
2012,05,04,01,30,8.10
2012,05,04,01,31,8.10
2012,05,04,01,32,8.10
2012,05,04,01,33,8.10
2012,05,04,01,34,8.10
2012,05,04,01,35,8.10
2012,05,04,01,36,8.10
2012,05,04,01,37,8.10
2012,05,04,01,38,8.10
2012,05,04,01,39,8.10
2012,05,04,01,40,8.00
2012,05,04,01,41,8.00
2012,05,04,01,42,8.00
2012,05,04,01,43,8.00
2012,05,04,01,44,8.00
2012,05,04,01,45,8.00
2012,05,04,01,46,7.90
2012,05,04,01,47,7.90
2012,05,04,01,48,7.90
2012,05,04,01,49,7.90
2012,05,04,01,50,7.90
2012,05,04,01,51,7.90
2012,05,04,01,52,7.90
2012,05,04,01,53,7.90
2012,05,04,01,54,7.90
2012,05,04,01,55,7.90
2012,05,04,01,56,7.90
2012,05,04,01,57,7.90
2012,05,04,01,58,7.80
2012,05,04,01,59,7.80
2012,05,04,02,00,7.80
2012,05,04,02,01,7.80
2012,05,04,02,02,7.80
2012,05,04,02,03,7.80
2012,05,04,02,04,7.80
2012,05,04,02,05,7.80
2012,05,04,02,06,7.80
2012,05,04,02,07,7.80
2012,05,04,02,08,7.80
2012,05,04,02,09,7.80
2012,05,04,02,10,7.80
2012,05,04,02,11,7.70
2012,05,04,02,12,7.70
2012,05,04,02,13,7.70
2012,05,04,02,14,7.70
2012,05,04,02,15,7.70
2012,05,04,02,16,7.70
2012,05,04,02,17,7.70
2012,05,04,02,18,7.70
2012,05,04,02,19,7.70
2012,05,04,02,20,7.70
2012,05,04,02,21,7.70
2012,05,04,02,22,7.70
2012,05,04,02,23,7.70
2012,05,04,02,24,7.70
2012,05,04,02,25,7.70
2012,05,04,02,26,7.70
2012,05,04,02,27,7.70
2012,05,04,02,28,7.70
2012,05,04,02,29,7.70
2012,05,04,02,30,7.70
2012,05,04,02,31,7.70
2012,05,04,02,32,7.70
2012,05,04,02,33,7.70
2012,05,04,02,34,7.70
2012,05,04,02,35,7.70
2012,05,04,02,36,7.70
2012,05,04,02,37,7.70
2012,05,04,02,38,7.70
2012,05,04,02,39,7.70
2012,05,04,02,40,7.70
2012,05,04,02,41,7.70
2012,05,04,02,42,7.80
2012,05,04,02,43,7.80
2012,05,04,02,44,7.70
2012,05,04,02,45,7.70
2012,05,04,02,46,7.70
2012,05,04,02,47,7.70
2012,05,04,02,48,7.70
2012,05,04,02,49,7.70
2012,05,04,02,50,7.70
2012,05,04,02,51,7.70
2012,05,04,02,52,7.70
2012,05,04,02,53,7.70
2012,05,04,02,54,7.70
2012,05,04,02,55,7.70
2012,05,04,02,56,7.70
2012,05,04,02,57,7.70
2012,05,04,02,58,7.70
2012,05,04,02,59,7.70
2012,05,04,03,00,7.70
2012,05,04,03,01,7.70
2012,05,04,03,02,7.70
2012,05,04,03,03,7.70
2012,05,04,03,04,7.70
2012,05,04,03,05,7.70
2012,05,04,03,06,7.70
2012,05,04,03,07,7.70
2012,05,04,03,08,7.70
2012,05,04,03,09,7.70
2012,05,04,03,10,7.70
2012,05,04,03,11,7.60
2012,05,04,03,12,7.60
2012,05,04,03,13,7.60
2012,05,04,03,14,7.60
2012,05,04,03,15,7.60
2012,05,04,03,16,7.60
2012,05,04,03,17,7.60
2012,05,04,03,18,7.60
2012,05,04,03,19,7.60
2012,05,04,03,20,7.60
2012,05,04,03,21,7.60
2012,05,04,03,22,7.60
2012,05,04,03,23,7.60
2012,05,04,03,24,7.70
2012,05,04,03,25,7.70
2012,05,04,03,26,7.70
2012,05,04,03,27,7.70
2012,05,04,03,28,7.60
2012,05,04,03,29,7.60
2012,05,04,03,30,7.60
2012,05,04,03,31,7.60
2012,05,04,03,32,7.60
2012,05,04,03,33,7.60
2012,05,04,03,34,7.60
2012,05,04,03,35,7.60
2012,05,04,03,36,7.60
2012,05,04,03,37,7.60
2012,05,04,03,38,7.60
2012,05,04,03,39,7.60
2012,05,04,03,40,7.60
2012,05,04,03,41,7.70
2012,05,04,03,42,7.70
2012,05,04,03,43,7.70
2012,05,04,03,44,7.70
2012,05,04,03,45,7.60
2012,05,04,03,46,7.60
2012,05,04,03,47,7.60
2012,05,04,03,48,7.60
2012,05,04,03,49,7.60
2012,05,04,03,50,7.70
2012,05,04,03,51,7.70
2012,05,04,03,52,7.70
2012,05,04,03,53,7.70
2012,05,04,03,54,7.70
2012,05,04,03,55,7.70
2012,05,04,03,56,7.70
2012,05,04,03,57,7.70
2012,05,04,03,58,7.60
2012,05,04,03,59,7.60
2012,05,04,04,00,7.60
2012,05,04,04,01,7.60
2012,05,04,04,02,7.60
2012,05,04,04,03,7.60
2012,05,04,04,04,7.60
2012,05,04,04,05,7.60
2012,05,04,04,06,7.60
2012,05,04,04,07,7.60
2012,05,04,04,08,7.60
2012,05,04,04,09,7.60
2012,05,04,04,10,7.60
2012,05,04,04,11,7.60
2012,05,04,04,12,7.60
2012,05,04,04,13,7.60
2012,05,04,04,14,7.70
2012,05,04,04,15,7.70
2012,05,04,04,16,7.70
2012,05,04,04,17,7.70
2012,05,04,04,18,7.70
2012,05,04,04,19,7.70
2012,05,04,04,20,7.70
2012,05,04,04,21,7.70
2012,05,04,04,22,7.70
2012,05,04,04,23,7.70
2012,05,04,04,24,7.70
2012,05,04,04,25,7.60
2012,05,04,04,26,7.70
2012,05,04,04,27,7.70
2012,05,04,04,28,7.70
2012,05,04,04,29,7.70
2012,05,04,04,30,7.70
2012,05,04,04,31,7.70
2012,05,04,04,32,7.70
2012,05,04,04,33,7.70
2012,05,04,04,34,7.80
2012,05,04,04,35,7.70
2012,05,04,04,36,7.70
2012,05,04,04,37,7.70
2012,05,04,04,38,7.70
2012,05,04,04,39,7.80
2012,05,04,04,40,7.80
2012,05,04,04,41,7.80
2012,05,04,04,42,7.80
2012,05,04,04,43,7.80
2012,05,04,04,44,7.80
2012,05,04,04,45,7.80
2012,05,04,04,46,7.80
2012,05,04,04,47,7.80
2012,05,04,04,48,7.80
2012,05,04,04,49,7.80
2012,05,04,04,50,7.80
2012,05,04,04,51,7.80
2012,05,04,04,52,7.80
2012,05,04,04,53,7.80
2012,05,04,04,54,7.80
2012,05,04,04,55,7.80
2012,05,04,04,56,7.80
2012,05,04,04,57,7.80
2012,05,04,04,58,7.80
2012,05,04,04,59,7.80
2012,05,04,05,00,7.80
2012,05,04,05,01,7.80
2012,05,04,05,02,7.80
2012,05,04,05,03,7.80
2012,05,04,05,04,7.80
2012,05,04,05,05,7.80
2012,05,04,05,06,7.80
2012,05,04,05,07,7.80
2012,05,04,05,08,7.80
2012,05,04,05,09,7.80
2012,05,04,05,10,7.80
2012,05,04,05,11,7.80
2012,05,04,05,12,7.80
2012,05,04,05,13,7.80
2012,05,04,05,14,7.80
2012,05,04,05,15,7.80
2012,05,04,05,16,7.80
2012,05,04,05,17,7.80
2012,05,04,05,18,7.80
2012,05,04,05,19,7.80
2012,05,04,05,20,7.80
2012,05,04,05,21,7.80
2012,05,04,05,22,7.80
2012,05,04,05,23,7.80
2012,05,04,05,24,7.80
2012,05,04,05,25,7.80
2012,05,04,05,26,7.80
2012,05,04,05,27,7.80
2012,05,04,05,28,7.80
2012,05,04,05,29,7.80
2012,05,04,05,30,7.80
2012,05,04,05,31,7.80
2012,05,04,05,32,7.80
2012,05,04,05,33,7.80
2012,05,04,05,34,7.70
2012,05,04,05,35,7.70
2012,05,04,05,36,7.70
2012,05,04,05,37,7.70
2012,05,04,05,38,7.70
2012,05,04,05,39,7.70
2012,05,04,05,40,7.70
2012,05,04,05,41,7.70
2012,05,04,05,42,7.70
2012,05,04,05,43,7.70
2012,05,04,05,44,7.70
2012,05,04,05,45,7.70
2012,05,04,05,46,7.60
2012,05,04,05,47,7.70
2012,05,04,05,48,7.70
2012,05,04,05,49,7.70
2012,05,04,05,50,7.70
2012,05,04,05,51,7.60
2012,05,04,05,52,7.60
2012,05,04,05,53,7.60
2012,05,04,05,54,7.60
2012,05,04,05,55,7.60
2012,05,04,05,56,7.60
2012,05,04,05,57,7.60
2012,05,04,05,58,7.60
2012,05,04,05,59,7.60
2012,05,04,06,00,7.60
2012,05,04,06,01,7.60
2012,05,04,06,02,7.60
2012,05,04,06,03,7.60
2012,05,04,06,04,7.60
2012,05,04,06,05,7.60
2012,05,04,06,06,7.60
2012,05,04,06,07,7.60
2012,05,04,06,08,7.60
2012,05,04,06,09,7.60
2012,05,04,06,10,7.60
2012,05,04,06,11,7.60
2012,05,04,06,12,7.60
2012,05,04,06,13,7.60
2012,05,04,06,14,7.60
2012,05,04,06,15,7.60
2012,05,04,06,16,7.60
2012,05,04,06,17,7.60
2012,05,04,06,18,7.60
2012,05,04,06,19,7.60
2012,05,04,06,20,7.60
2012,05,04,06,21,7.60
2012,05,04,06,22,7.60
2012,05,04,06,23,7.60
2012,05,04,06,24,7.60
2012,05,04,06,25,7.60
2012,05,04,06,26,7.60
2012,05,04,06,27,7.60
2012,05,04,06,28,7.60
2012,05,04,06,29,7.60
2012,05,04,06,30,7.60
2012,05,04,06,31,7.60
2012,05,04,06,32,7.60
2012,05,04,06,33,7.60
2012,05,04,06,34,7.60
2012,05,04,06,35,7.60
2012,05,04,06,36,7.60
2012,05,04,06,37,7.60
2012,05,04,06,38,7.60
2012,05,04,06,39,7.60
2012,05,04,06,40,7.60
2012,05,04,06,41,7.60
2012,05,04,06,42,7.60
2012,05,04,06,43,7.60
2012,05,04,06,44,7.60
2012,05,04,06,45,7.60
2012,05,04,06,46,7.70
2012,05,04,06,47,7.70
2012,05,04,06,48,7.70
2012,05,04,06,49,7.70
2012,05,04,06,50,7.70
2012,05,04,06,51,7.70
2012,05,04,06,52,7.70
2012,05,04,06,53,7.70
2012,05,04,06,54,7.70
2012,05,04,06,55,7.70
2012,05,04,06,56,7.70
2012,05,04,06,57,7.70
2012,05,04,06,58,7.70
2012,05,04,06,59,7.70
2012,05,04,07,00,7.70
2012,05,04,07,01,7.70
2012,05,04,07,02,7.60
2012,05,04,07,03,7.60
2012,05,04,07,04,7.70
2012,05,04,07,05,7.70
2012,05,04,07,06,7.70
2012,05,04,07,07,7.70
2012,05,04,07,08,7.70
2012,05,04,07,09,7.70
2012,05,04,07,10,7.70
2012,05,04,07,11,7.70
2012,05,04,07,12,7.70
2012,05,04,07,13,7.80
2012,05,04,07,14,7.80
2012,05,04,07,15,7.80
2012,05,04,07,16,7.80
2012,05,04,07,17,7.80
2012,05,04,07,18,7.80
2012,05,04,07,19,7.80
2012,05,04,07,20,7.80
2012,05,04,07,21,7.80
2012,05,04,07,22,7.80
2012,05,04,07,23,7.80
2012,05,04,07,24,7.80
2012,05,04,07,25,7.80
2012,05,04,07,26,7.80
2012,05,04,07,27,7.80
2012,05,04,07,28,7.80
2012,05,04,07,29,7.80
2012,05,04,07,30,7.80
2012,05,04,07,31,7.80
2012,05,04,07,32,7.80
2012,05,04,07,33,7.80
2012,05,04,07,34,7.80
2012,05,04,07,35,7.80
2012,05,04,07,36,7.80
2012,05,04,07,37,7.80
2012,05,04,07,38,7.80
2012,05,04,07,39,7.80
2012,05,04,07,40,7.80
2012,05,04,07,41,7.80
2012,05,04,07,42,7.80
2012,05,04,07,43,7.90
2012,05,04,07,44,7.80
2012,05,04,07,45,7.80
2012,05,04,07,46,7.90
2012,05,04,07,47,7.80
2012,05,04,07,48,7.80
2012,05,04,07,49,7.80
2012,05,04,07,50,7.90
2012,05,04,07,51,7.90
2012,05,04,07,52,7.90
2012,05,04,07,53,7.90
2012,05,04,07,54,7.90
2012,05,04,07,55,7.90
2012,05,04,07,56,7.90
2012,05,04,07,57,7.90
2012,05,04,07,58,7.90
2012,05,04,07,59,7.90
2012,05,04,08,00,7.90
2012,05,04,08,01,7.90
2012,05,04,08,02,7.80
2012,05,04,08,03,7.80
2012,05,04,08,04,7.80
2012,05,04,08,05,7.80
2012,05,04,08,06,7.80
2012,05,04,08,07,7.90
2012,05,04,08,08,7.90
2012,05,04,08,09,7.90
2012,05,04,08,10,7.90
2012,05,04,08,11,7.90
2012,05,04,08,12,7.80
2012,05,04,08,13,7.90
2012,05,04,08,14,7.90
2012,05,04,08,15,7.90
2012,05,04,08,16,7.90
2012,05,04,08,17,7.90
2012,05,04,08,18,7.90
2012,05,04,08,19,7.90
2012,05,04,08,20,7.90
2012,05,04,08,21,7.80
2012,05,04,08,22,7.80
2012,05,04,08,23,7.80
2012,05,04,08,24,7.80
2012,05,04,08,25,7.80
2012,05,04,08,26,7.80
2012,05,04,08,27,7.80
2012,05,04,08,28,7.80
2012,05,04,08,29,7.80
2012,05,04,08,30,7.80
2012,05,04,08,31,7.80
2012,05,04,08,32,7.80
2012,05,04,08,33,7.80
2012,05,04,08,34,7.80
2012,05,04,08,35,7.80
2012,05,04,08,36,7.80
2012,05,04,08,37,7.80
2012,05,04,08,38,7.80
2012,05,04,08,39,7.80
2012,05,04,08,40,7.80
2012,05,04,08,41,7.70
2012,05,04,08,42,7.60
2012,05,04,08,43,7.60
2012,05,04,08,44,7.50
2012,05,04,08,45,7.50
2012,05,04,08,46,7.50
2012,05,04,08,47,7.50
2012,05,04,08,48,7.50
2012,05,04,08,49,7.50
2012,05,04,08,50,7.40
2012,05,04,08,51,7.40
2012,05,04,08,52,7.40
2012,05,04,08,53,7.40
2012,05,04,08,54,7.40
2012,05,04,08,55,7.30
2012,05,04,08,56,7.30
2012,05,04,08,57,7.30
2012,05,04,08,58,7.30
2012,05,04,08,59,7.30
2012,05,04,09,00,7.30
2012,05,04,09,01,7.30
2012,05,04,09,02,7.30
2012,05,04,09,03,7.30
2012,05,04,09,04,7.30
2012,05,04,09,05,7.30
2012,05,04,09,06,7.30
2012,05,04,09,07,7.30
2012,05,04,09,08,7.30
2012,05,04,09,09,7.30
2012,05,04,09,10,7.30
2012,05,04,09,11,7.30
2012,05,04,09,12,7.30
2012,05,04,09,13,7.30
2012,05,04,09,14,7.30
2012,05,04,09,15,7.30
2012,05,04,09,16,7.30
2012,05,04,09,17,7.30
2012,05,04,09,18,7.30
2012,05,04,09,19,7.30
2012,05,04,09,20,7.30
2012,05,04,09,21,7.30
2012,05,04,09,22,7.30
2012,05,04,09,23,7.30
2012,05,04,09,24,7.30
2012,05,04,09,25,7.30
2012,05,04,09,26,7.30
2012,05,04,09,27,7.30
2012,05,04,09,28,7.30
2012,05,04,09,29,7.30
2012,05,04,09,30,7.30
2012,05,04,09,31,7.30
2012,05,04,09,32,7.30
2012,05,04,09,33,7.40
2012,05,04,09,34,7.40
2012,05,04,09,35,7.50
2012,05,04,09,36,7.50
2012,05,04,09,37,7.50
2012,05,04,09,38,7.60
2012,05,04,09,39,7.60
2012,05,04,09,40,7.60
2012,05,04,09,41,7.60
2012,05,04,09,42,7.60
2012,05,04,09,43,7.60
2012,05,04,09,44,7.60
2012,05,04,09,45,7.60
2012,05,04,09,46,7.60
2012,05,04,09,47,7.60
2012,05,04,09,48,7.60
2012,05,04,09,49,7.60
2012,05,04,09,50,7.70
2012,05,04,09,51,7.70
2012,05,04,09,52,7.70
2012,05,04,09,53,7.80
2012,05,04,09,54,7.80
2012,05,04,09,55,7.80
2012,05,04,09,56,7.80
2012,05,04,09,57,7.80
2012,05,04,09,58,7.80
2012,05,04,09,59,7.80
2012,05,04,10,00,7.80
2012,05,04,10,01,7.80
2012,05,04,10,02,7.80
2012,05,04,10,03,7.80
2012,05,04,10,04,7.80
2012,05,04,10,05,7.80
2012,05,04,10,06,7.90
2012,05,04,10,07,7.90
2012,05,04,10,08,7.90
2012,05,04,10,09,7.90
2012,05,04,10,10,8.00
2012,05,04,10,11,8.00
2012,05,04,10,12,8.10
2012,05,04,10,13,8.10
2012,05,04,10,14,8.20
2012,05,04,10,15,8.20
2012,05,04,10,16,8.20
2012,05,04,10,17,8.20
2012,05,04,10,18,8.20
2012,05,04,10,19,8.20
2012,05,04,10,20,8.20
2012,05,04,10,21,8.20
2012,05,04,10,22,8.30
2012,05,04,10,23,8.30
2012,05,04,10,24,8.30
2012,05,04,10,25,8.20
2012,05,04,10,26,8.20
2012,05,04,10,27,8.20
2012,05,04,10,28,8.20
2012,05,04,10,29,8.30
2012,05,04,10,30,8.30
2012,05,04,10,31,8.40
2012,05,04,10,32,8.40
2012,05,04,10,33,8.40
2012,05,04,10,34,8.40
2012,05,04,10,35,8.40
2012,05,04,10,36,8.50
2012,05,04,10,37,8.60
2012,05,04,10,38,8.50
2012,05,04,10,39,8.60
2012,05,04,10,40,8.60
2012,05,04,10,41,8.70
2012,05,04,10,42,8.70
2012,05,04,10,43,8.70
2012,05,04,10,44,8.70
2012,05,04,10,45,8.70
2012,05,04,10,46,8.70
2012,05,04,10,47,8.70
2012,05,04,10,48,8.70
2012,05,04,10,49,8.70
2012,05,04,10,50,8.70
2012,05,04,10,51,8.70
2012,05,04,10,52,8.70
2012,05,04,10,53,8.70
2012,05,04,10,54,8.70
2012,05,04,10,55,8.60
2012,05,04,10,56,8.60
2012,05,04,10,57,8.60
2012,05,04,10,58,8.60
2012,05,04,10,59,8.60
2012,05,04,11,00,8.60
2012,05,04,11,01,8.60
2012,05,04,11,02,8.60
2012,05,04,11,03,8.60
2012,05,04,11,04,8.60
2012,05,04,11,05,8.70
2012,05,04,11,06,8.70
2012,05,04,11,07,8.70
2012,05,04,11,08,8.70
2012,05,04,11,09,8.70
2012,05,04,11,10,8.70
2012,05,04,11,11,8.70
2012,05,04,11,12,8.70
2012,05,04,11,13,8.70
2012,05,04,11,14,8.80
2012,05,04,11,15,8.80
2012,05,04,11,16,8.80
2012,05,04,11,17,8.90
2012,05,04,11,18,8.90
2012,05,04,11,19,8.90
2012,05,04,11,20,9.00
2012,05,04,11,21,9.00
2012,05,04,11,22,9.00
2012,05,04,11,23,9.10
2012,05,04,11,24,9.20
2012,05,04,11,25,9.20
2012,05,04,11,26,9.20
2012,05,04,11,27,9.30
2012,05,04,11,28,9.40
2012,05,04,11,29,9.50
2012,05,04,11,30,9.60
2012,05,04,11,31,9.70
2012,05,04,11,32,9.70
2012,05,04,11,33,9.80
2012,05,04,11,34,9.90
2012,05,04,11,35,10.00
2012,05,04,11,36,10.10
2012,05,04,11,37,10.00
2012,05,04,11,38,9.90
2012,05,04,11,39,9.80
2012,05,04,11,40,9.90
2012,05,04,11,41,9.90
2012,05,04,11,42,9.90
2012,05,04,11,43,10.00
2012,05,04,11,44,10.10
2012,05,04,11,45,10.20
2012,05,04,11,46,10.10
2012,05,04,11,47,10.10
2012,05,04,11,48,10.10
2012,05,04,11,49,10.30
2012,05,04,11,50,10.40
2012,05,04,11,51,10.30
2012,05,04,11,52,10.20
2012,05,04,11,53,10.20
2012,05,04,11,54,10.10
2012,05,04,11,55,10.10
2012,05,04,11,56,10.10
2012,05,04,11,57,10.10
2012,05,04,11,58,10.20
2012,05,04,11,59,10.30
2012,05,04,12,00,10.40
2012,05,04,12,01,10.30
2012,05,04,12,02,10.30
2012,05,04,12,03,10.30
2012,05,04,12,04,10.30
2012,05,04,12,05,10.10
2012,05,04,12,06,10.20
2012,05,04,12,07,10.10
2012,05,04,12,08,10.10
2012,05,04,12,09,10.10
2012,05,04,12,10,10.10
2012,05,04,12,11,10.10
2012,05,04,12,12,10.20
2012,05,04,12,13,10.40
2012,05,04,12,14,10.50
2012,05,04,12,15,10.40
2012,05,04,12,16,10.30
2012,05,04,12,17,10.40
2012,05,04,12,18,10.40
2012,05,04,12,19,10.50
2012,05,04,12,20,10.60
2012,05,04,12,21,10.80
2012,05,04,12,22,10.90
2012,05,04,12,23,10.90
2012,05,04,12,24,10.80
2012,05,04,12,25,10.80
2012,05,04,12,26,10.90
2012,05,04,12,27,10.80
2012,05,04,12,28,10.80
2012,05,04,12,29,10.70
2012,05,04,12,30,10.80
2012,05,04,12,31,10.80
2012,05,04,12,32,10.90
2012,05,04,12,33,11.10
2012,05,04,12,34,11.10
2012,05,04,12,35,10.90
2012,05,04,12,36,10.90
2012,05,04,12,37,10.90
2012,05,04,12,38,10.90
2012,05,04,12,39,11.00
2012,05,04,12,40,11.10
2012,05,04,12,41,11.20
2012,05,04,12,42,11.10
2012,05,04,12,43,11.20
2012,05,04,12,44,11.40
2012,05,04,12,45,11.40
2012,05,04,12,46,11.40
2012,05,04,12,47,11.40
2012,05,04,12,48,11.40
2012,05,04,12,49,11.40
2012,05,04,12,50,11.50
2012,05,04,12,51,11.50
2012,05,04,12,52,11.40
2012,05,04,12,53,11.40
2012,05,04,12,54,11.40
2012,05,04,12,55,11.50
2012,05,04,12,56,11.60
2012,05,04,12,57,11.50
2012,05,04,12,58,11.50
2012,05,04,12,59,11.60
2012,05,04,13,00,11.60
2012,05,04,13,01,11.60
2012,05,04,13,02,11.70
2012,05,04,13,03,11.70
2012,05,04,13,04,11.60
2012,05,04,13,05,11.70
2012,05,04,13,06,11.60
2012,05,04,13,07,11.50
2012,05,04,13,08,11.40
2012,05,04,13,09,11.40
2012,05,04,13,10,11.40
2012,05,04,13,11,11.40
2012,05,04,13,12,11.40
2012,05,04,13,13,11.40
2012,05,04,13,14,11.40
2012,05,04,13,15,11.40
2012,05,04,13,16,11.40
2012,05,04,13,17,11.40
2012,05,04,13,18,11.40
2012,05,04,13,19,11.30
2012,05,04,13,20,11.30
2012,05,04,13,21,11.40
2012,05,04,13,22,11.40
2012,05,04,13,23,11.60
2012,05,04,13,24,11.60
2012,05,04,13,25,11.60
2012,05,04,13,26,11.60
2012,05,04,13,27,11.60
2012,05,04,13,28,11.60
2012,05,04,13,29,11.60
2012,05,04,13,30,11.70
2012,05,04,13,31,11.70
2012,05,04,13,32,11.70
2012,05,04,13,33,11.70
2012,05,04,13,34,11.80
2012,05,04,13,35,11.80
2012,05,04,13,36,11.70
2012,05,04,13,37,11.80
2012,05,04,13,38,11.90
2012,05,04,13,39,11.90
2012,05,04,13,40,11.80
2012,05,04,13,41,11.80
2012,05,04,13,42,11.70
2012,05,04,13,43,11.80
2012,05,04,13,44,11.80
2012,05,04,13,45,11.90
2012,05,04,13,46,12.00
2012,05,04,13,47,12.10
2012,05,04,13,48,12.20
2012,05,04,13,49,12.20
2012,05,04,13,50,12.30
2012,05,04,13,51,12.40
2012,05,04,13,52,12.50
2012,05,04,13,53,12.60
2012,05,04,13,54,12.60
2012,05,04,13,55,12.40
2012,05,04,13,56,12.30
2012,05,04,13,57,12.20
2012,05,04,13,58,12.20
2012,05,04,13,59,12.20
2012,05,04,14,00,12.20
2012,05,04,14,01,12.30
2012,05,04,14,02,12.30
2012,05,04,14,03,12.30
2012,05,04,14,04,12.20
2012,05,04,14,05,12.10
2012,05,04,14,06,12.10
2012,05,04,14,07,12.10
2012,05,04,14,08,12.20
2012,05,04,14,09,12.20
2012,05,04,14,10,12.30
2012,05,04,14,11,12.30
2012,05,04,14,12,12.40
2012,05,04,14,13,12.40
2012,05,04,14,14,12.40
2012,05,04,14,15,12.50
2012,05,04,14,16,12.60
2012,05,04,14,17,12.60
2012,05,04,14,18,12.70
2012,05,04,14,19,12.70
2012,05,04,14,20,12.70
2012,05,04,14,21,12.80
2012,05,04,14,22,12.90
2012,05,04,14,23,12.90
2012,05,04,14,24,12.90
2012,05,04,14,25,12.90
2012,05,04,14,26,12.90
2012,05,04,14,27,12.80
2012,05,04,14,28,12.80
2012,05,04,14,29,12.80
2012,05,04,14,30,12.80
2012,05,04,14,31,12.70
2012,05,04,14,32,12.60
2012,05,04,14,33,12.50
2012,05,04,14,34,12.60
2012,05,04,14,35,12.70
2012,05,04,14,36,12.70
2012,05,04,14,37,12.70
2012,05,04,14,38,12.70
2012,05,04,14,39,12.60
2012,05,04,14,40,12.60
2012,05,04,14,41,12.50
2012,05,04,14,42,12.40
2012,05,04,14,43,12.50
2012,05,04,14,44,12.50
2012,05,04,14,45,12.50
2012,05,04,14,46,12.50
2012,05,04,14,47,12.30
2012,05,04,14,48,12.30
2012,05,04,14,49,12.30
2012,05,04,14,50,12.30
2012,05,04,14,51,12.20
2012,05,04,14,52,12.30
2012,05,04,14,53,12.30
2012,05,04,14,54,12.30
2012,05,04,14,55,12.30
2012,05,04,14,56,12.30
2012,05,04,14,57,12.20
2012,05,04,14,58,12.30
2012,05,04,14,59,12.40
2012,05,04,15,00,12.40
2012,05,04,15,01,12.50
2012,05,04,15,02,12.50
2012,05,04,15,03,12.40
2012,05,04,15,04,12.30
2012,05,04,15,05,12.30
2012,05,04,15,06,12.20
2012,05,04,15,07,12.10
2012,05,04,15,08,12.10
2012,05,04,15,09,12.20
2012,05,04,15,10,12.40
2012,05,04,15,11,12.50
2012,05,04,15,12,12.50
2012,05,04,15,13,12.40
2012,05,04,15,14,12.30
2012,05,04,15,15,12.30
2012,05,04,15,16,12.30
2012,05,04,15,17,12.30
2012,05,04,15,18,12.20
2012,05,04,15,19,12.20
2012,05,04,15,20,12.30
2012,05,04,15,21,12.30
2012,05,04,15,22,12.40
2012,05,04,15,23,12.50
2012,05,04,15,24,12.50
2012,05,04,15,25,12.50
2012,05,04,15,26,12.50
2012,05,04,15,27,12.50
2012,05,04,15,28,12.50
2012,05,04,15,29,12.40
2012,05,04,15,30,12.30
2012,05,04,15,31,12.30
2012,05,04,15,32,12.40
2012,05,04,15,33,12.40
2012,05,04,15,34,12.40
2012,05,04,15,35,12.50
2012,05,04,15,36,12.50
2012,05,04,15,37,12.60
2012,05,04,15,38,12.60
2012,05,04,15,39,12.50
2012,05,04,15,40,12.50
2012,05,04,15,41,12.40
2012,05,04,15,42,12.40
2012,05,04,15,43,12.30
2012,05,04,15,44,12.40
2012,05,04,15,45,12.50
2012,05,04,15,46,12.50
2012,05,04,15,47,12.60
2012,05,04,15,48,12.60
2012,05,04,15,49,12.60
2012,05,04,15,50,12.50
2012,05,04,15,51,12.40
2012,05,04,15,52,12.30
2012,05,04,15,53,12.30
2012,05,04,15,54,12.30
2012,05,04,15,55,12.40
2012,05,04,15,56,12.30
2012,05,04,15,57,12.30
2012,05,04,15,58,12.20
2012,05,04,15,59,12.20
2012,05,04,16,00,12.20
2012,05,04,16,01,12.30
2012,05,04,16,02,12.50
2012,05,04,16,03,12.60
2012,05,04,16,04,12.60
2012,05,04,16,05,12.70
2012,05,04,16,06,12.60
2012,05,04,16,07,12.50
2012,05,04,16,08,12.40
2012,05,04,16,09,12.40
2012,05,04,16,10,12.40
2012,05,04,16,11,12.40
2012,05,04,16,12,12.40
2012,05,04,16,13,12.40
2012,05,04,16,14,12.50
2012,05,04,16,15,12.60
2012,05,04,16,16,12.70
2012,05,04,16,17,12.60
2012,05,04,16,18,12.40
2012,05,04,16,19,12.20
2012,05,04,16,20,12.10
2012,05,04,16,21,12.20
2012,05,04,16,22,12.30
2012,05,04,16,23,12.30
2012,05,04,16,24,12.40
2012,05,04,16,25,12.40
2012,05,04,16,26,12.40
2012,05,04,16,27,12.30
2012,05,04,16,28,12.20
2012,05,04,16,29,12.30
2012,05,04,16,30,12.30
2012,05,04,16,31,12.40
2012,05,04,16,32,12.40
2012,05,04,16,33,12.40
2012,05,04,16,34,12.60
2012,05,04,16,35,12.60
2012,05,04,16,36,12.60
2012,05,04,16,37,12.50
2012,05,04,16,38,12.30
2012,05,04,16,39,12.10
2012,05,04,16,40,12.10
2012,05,04,16,41,12.00
2012,05,04,16,42,12.00
2012,05,04,16,43,12.00
2012,05,04,16,44,12.00
2012,05,04,16,45,12.00
2012,05,04,16,46,12.10
2012,05,04,16,47,12.30
2012,05,04,16,48,12.30
2012,05,04,16,49,12.30
2012,05,04,16,50,12.30
2012,05,04,16,51,12.30
2012,05,04,16,52,12.10
2012,05,04,16,53,12.00
2012,05,04,16,54,11.90
2012,05,04,16,55,11.90
2012,05,04,16,56,11.90
2012,05,04,16,57,12.00
2012,05,04,16,58,12.00
2012,05,04,16,59,12.10
2012,05,04,17,00,12.10
2012,05,04,17,01,12.10
2012,05,04,17,02,12.20
2012,05,04,17,03,12.30
2012,05,04,17,04,12.20
2012,05,04,17,05,12.20
2012,05,04,17,06,12.20
2012,05,04,17,07,12.20
2012,05,04,17,08,12.30
2012,05,04,17,09,12.30
2012,05,04,17,10,12.30
2012,05,04,17,11,12.20
2012,05,04,17,12,12.20
2012,05,04,17,13,12.10
2012,05,04,17,14,12.10
2012,05,04,17,15,12.10
2012,05,04,17,16,12.00
2012,05,04,17,17,12.00
2012,05,04,17,18,11.90
2012,05,04,17,19,12.00
2012,05,04,17,20,12.00
2012,05,04,17,21,12.10
2012,05,04,17,22,12.10
2012,05,04,17,23,12.10
2012,05,04,17,24,12.10
2012,05,04,17,25,12.00
2012,05,04,17,26,12.00
2012,05,04,17,27,11.90
2012,05,04,17,28,12.00
2012,05,04,17,29,12.00
2012,05,04,17,30,12.00
2012,05,04,17,31,11.90
2012,05,04,17,32,11.90
2012,05,04,17,33,11.80
2012,05,04,17,34,11.90
2012,05,04,17,35,12.00
2012,05,04,17,36,12.00
2012,05,04,17,37,11.90
2012,05,04,17,38,11.90
2012,05,04,17,39,12.00
2012,05,04,17,40,12.00
2012,05,04,17,41,12.00
2012,05,04,17,42,11.90
2012,05,04,17,43,11.80
2012,05,04,17,44,11.70
2012,05,04,17,45,11.60
2012,05,04,17,46,11.50
2012,05,04,17,47,11.40
2012,05,04,17,48,11.40
2012,05,04,17,49,11.40